Track GONETS-M 9 now! 10-day predictions GONETS-M 9 is classified as:
1 40062U 14036B 26253.97399571 .00000102 00000-0 66683-3 0 9999 2 40062 82.5045 254.3645 0022527 331.6555 28.3298 12.42953748553115